TimeEST,TemperatureF,Dew PointF,Humidity,Sea Level PressureIn,VisibilityMPH,Wind Direction,Wind SpeedMPH,Gust SpeedMPH,PrecipitationIn,Events,Conditions,WindDirDegrees,DateUTC
12:52 AM,28.0,9.0,45,30.13,10.0,NW,21.9,26.5,N/A,,Clear,310,2013-02-21 05:52:00
1:52 AM,27.0,9.0,47,30.14,10.0,NW,18.4,25.3,N/A,,Clear,310,2013-02-21 06:52:00
2:52 AM,27.0,9.0,47,30.14,10.0,NW,15.0,24.2,N/A,,Clear,310,2013-02-21 07:52:00
3:52 AM,27.0,9.0,47,30.14,10.0,NW,20.7,-,N/A,,Clear,320,2013-02-21 08:52:00
4:52 AM,27.0,10.0,49,30.15,10.0,NW,19.6,-,N/A,,Clear,310,2013-02-21 09:52:00
4:59 AM,26.6,10.4,51,30.15,10.0,NW,19.6,27.6,N/A,,Clear,310,2013-02-21 09:59:00
5:52 AM,27.0,10.9,51,30.16,10.0,NW,19.6,29.9,N/A,,Partly Cloudy,310,2013-02-21 10:52:00
6:52 AM,27.0,10.9,51,30.18,10.0,WNW,18.4,25.3,N/A,,Partly Cloudy,290,2013-02-21 11:52:00
7:52 AM,28.0,10.0,47,30.19,10.0,West,12.7,-,N/A,,Partly Cloudy,280,2013-02-21 12:52:00
8:52 AM,30.0,10.9,45,30.21,10.0,WNW,15.0,24.2,N/A,,Scattered Clouds,290,2013-02-21 13:52:00
9:52 AM,32.0,12.9,45,30.20,10.0,WNW,17.3,-,N/A,,Scattered Clouds,300,2013-02-21 14:52:00
10:52 AM,33.1,12.9,43,30.21,10.0,WNW,18.4,27.6,N/A,,Scattered Clouds,290,2013-02-21 15:52:00
11:52 AM,35.1,14.0,42,30.19,10.0,WNW,16.1,-,N/A,,Partly Cloudy,300,2013-02-21 16:52:00
12:52 PM,37.9,16.0,41,30.18,10.0,NW,17.3,-,N/A,,Clear,310,2013-02-21 17:52:00
1:52 PM,39.0,17.1,41,30.15,10.0,NW,20.7,25.3,N/A,,Clear,320,2013-02-21 18:52:00
2:52 PM,39.9,15.1,36,30.15,10.0,NW,20.7,26.5,N/A,,Clear,310,2013-02-21 19:52:00
3:52 PM,39.9,15.1,36,30.16,10.0,WNW,18.4,-,N/A,,Clear,300,2013-02-21 20:52:00
4:52 PM,39.9,15.1,36,30.17,10.0,NW,17.3,21.9,N/A,,Partly Cloudy,310,2013-02-21 21:52:00
5:52 PM,37.9,15.1,39,30.21,10.0,NW,15.0,-,N/A,,Partly Cloudy,310,2013-02-21 22:52:00
6:52 PM,37.0,16.0,42,30.25,10.0,NW,12.7,-,N/A,,Clear,310,2013-02-21 23:52:00
7:52 PM,35.1,16.0,46,30.27,10.0,NW,11.5,-,N/A,,Clear,320,2013-02-22 00:52:00
8:52 PM,35.1,16.0,46,30.30,10.0,NW,11.5,-,N/A,,Clear,320,2013-02-22 01:52:00
9:52 PM,34.0,16.0,48,30.31,10.0,NW,12.7,-,N/A,,Clear,320,2013-02-22 02:52:00
10:52 PM,33.1,15.1,48,30.30,10.0,NNW,11.5,-,N/A,,Partly Cloudy,330,2013-02-22 03:52:00
11:52 PM,34.0,16.0,48,30.29,10.0,NNW,11.5,-,N/A,,Clear,330,2013-02-22 04:52:00